DAL1089 KATL-KMIA

Flight info

Callsign DAL1089
Flight time 1h 26m
Altitude 35000
Route VRSTY3 NOKIE YANTI Q89 PRMUS/N0446F340 Q97 DEBRL CSTAL3
Aircraft A320/M-SDE3FGHIRWY/LB1

Departure

Time 2026-05-04 23:49
Airport Hartsfield Jackson Atlanta International Airport (KATL)

Arrival

Time 2026-05-05 01:15
Airport Miami International Airport (KMIA)
Time Latitude Longitude Altitude Speed Heading
2026-05-04 23:09 33.64001 -84.43637 1036 ft 0 kts 90°
2026-05-04 23:38 33.64001 -84.43644 1035 ft 3 kts 90°
2026-05-04 23:38 33.64001 -84.43671 1035 ft 3 kts 91°
2026-05-04 23:39 33.64004 -84.43699 1035 ft 3 kts 111°
2026-05-04 23:39 33.64015 -84.43719 1035 ft 3 kts 158°
2026-05-04 23:39 33.64025 -84.43722 1035 ft 0 kts 180°
2026-05-04 23:41 33.64009 -84.43722 1035 ft 7 kts 180°
2026-05-04 23:41 33.63959 -84.43723 1035 ft 8 kts 180°
2026-05-04 23:42 33.63904 -84.43723 1035 ft 8 kts 180°
2026-05-04 23:42 33.63856 -84.43723 1035 ft 6 kts 179°
2026-05-04 23:42 33.63803 -84.43723 1035 ft 10 kts 180°
2026-05-04 23:42 33.63731 -84.43723 1035 ft 10 kts 180°
2026-05-04 23:43 33.63671 -84.43690 1035 ft 10 kts 120°
2026-05-04 23:43 33.63665 -84.43612 1035 ft 11 kts 91°
2026-05-04 23:43 33.63666 -84.43490 1035 ft 15 kts 85°
2026-05-04 23:43 33.63666 -84.43360 1035 ft 22 kts 91°
2026-05-04 23:44 33.63665 -84.43164 1035 ft 23 kts 93°
2026-05-04 23:44 33.63663 -84.42985 1035 ft 18 kts 88°
2026-05-04 23:44 33.63667 -84.42845 1035 ft 15 kts 89°
2026-05-04 23:44 33.63660 -84.42727 1036 ft 13 kts 95°
2026-05-04 23:45 33.63655 -84.42617 1036 ft 14 kts 92°
2026-05-04 23:45 33.63656 -84.42512 1036 ft 12 kts 89°
2026-05-04 23:45 33.63656 -84.42382 1036 ft 20 kts 90°
2026-05-04 23:45 33.63656 -84.42228 1036 ft 18 kts 90°
2026-05-04 23:46 33.63655 -84.42045 1036 ft 24 kts 90°
2026-05-04 23:46 33.63656 -84.41838 1035 ft 25 kts 90°
2026-05-04 23:46 33.63656 -84.41624 1035 ft 26 kts 90°
2026-05-04 23:46 33.63655 -84.41401 1035 ft 26 kts 89°
2026-05-04 23:47 33.63656 -84.41201 1035 ft 23 kts 90°
2026-05-04 23:47 33.63656 -84.41043 1035 ft 18 kts 90°
2026-05-04 23:47 33.63649 -84.40935 1035 ft 11 kts 117°
2026-05-04 23:47 33.63589 -84.40912 1035 ft 9 kts 180°
2026-05-04 23:48 33.63534 -84.40913 1036 ft 7 kts 181°
2026-05-04 23:48 33.63491 -84.40925 1036 ft 6 kts 215°
2026-05-04 23:48 33.63472 -84.40972 1036 ft 7 kts 261°
2026-05-04 23:48 33.63471 -84.41036 1035 ft 9 kts 270°
2026-05-04 23:49 33.63473 -84.41242 1034 ft 56 kts 270°
2026-05-04 23:49 33.63473 -84.41983 1036 ft 119 kts 270°
2026-05-04 23:49 33.63473 -84.43178 1037 ft 166 kts 269°
2026-05-04 23:49 33.63464 -84.44566 1653 ft 164 kts 267°
2026-05-04 23:50 33.63461 -84.45936 2312 ft 164 kts 266°
2026-05-04 23:50 33.63457 -84.47318 2865 ft 170 kts 266°
2026-05-04 23:50 33.63451 -84.48825 3094 ft 192 kts 266°
2026-05-04 23:50 33.63446 -84.50530 3339 ft 216 kts 266°
2026-05-04 23:51 33.63443 -84.52427 3598 ft 240 kts 267°
2026-05-04 23:51 33.63439 -84.54523 4047 ft 260 kts 268°
2026-05-04 23:51 33.63438 -84.56724 4822 ft 266 kts 268°
2026-05-04 23:51 33.63441 -84.58959 5671 ft 269 kts 268°
2026-05-04 23:52 33.63444 -84.61214 6539 ft 271 kts 268°
2026-05-04 23:52 33.63274 -84.63463 7326 ft 272 kts 253°
2026-05-04 23:52 33.62528 -84.65536 8126 ft 272 kts 236°
2026-05-04 23:52 33.61254 -84.67215 8943 ft 274 kts 218°
2026-05-04 23:53 33.59640 -84.68401 9730 ft 278 kts 209°
2026-05-04 23:53 33.57815 -84.69216 10442 ft 284 kts 193°
2026-05-04 23:53 33.55828 -84.69388 11117 ft 291 kts 177°
2026-05-04 23:53 33.53805 -84.69029 11802 ft 296 kts 173°
2026-05-04 23:54 33.51761 -84.68632 12498 ft 300 kts 173°
2026-05-04 23:54 33.49690 -84.68236 13189 ft 303 kts 173°
2026-05-04 23:54 33.47593 -84.67840 13873 ft 307 kts 173°
2026-05-04 23:54 33.45470 -84.67432 14473 ft 311 kts 171°
2026-05-04 23:55 33.43408 -84.66582 15064 ft 318 kts 155°
2026-05-04 23:55 33.41566 -84.65064 15568 ft 330 kts 140°
2026-05-04 23:55 33.38813 -84.60236 15821 ft 373 kts 121°
2026-05-04 23:56 33.37504 -84.57475 15998 ft 389 kts 121°
2026-05-04 23:56 33.36155 -84.54636 16433 ft 396 kts 122°
2026-05-04 23:56 33.34784 -84.51764 16967 ft 400 kts 122°
2026-05-04 23:56 33.33390 -84.48863 17511 ft 404 kts 122°
2026-05-04 23:57 33.32460 -84.46934 17880 ft 406 kts 122°
2026-05-04 23:57 33.31038 -84.43994 18416 ft 410 kts 122°
2026-05-04 23:57 33.29112 -84.40020 19050 ft 415 kts 122°
2026-05-04 23:57 33.28150 -84.38037 19361 ft 418 kts 122°
2026-05-04 23:58 33.26684 -84.35020 19855 ft 422 kts 122°
2026-05-04 23:58 33.25202 -84.31978 20318 ft 426 kts 122°
2026-05-04 23:58 33.23708 -84.28907 20778 ft 429 kts 122°
2026-05-04 23:58 33.22207 -84.25813 21244 ft 432 kts 122°
2026-05-04 23:59 33.20696 -84.22696 21700 ft 435 kts 122°
2026-05-04 23:59 33.19177 -84.19557 22135 ft 438 kts 122°
2026-05-04 23:59 33.17646 -84.16394 22559 ft 442 kts 122°
2026-05-04 23:59 33.16101 -84.13211 22969 ft 445 kts 122°
2026-05-05 00:00 33.14544 -84.10008 23371 ft 448 kts 122°
2026-05-05 00:00 33.13503 -84.07875 23622 ft 450 kts 122°
2026-05-05 00:00 33.11386 -84.03539 24065 ft 454 kts 122°
2026-05-05 00:00 33.09720 -84.00335 24390 ft 455 kts 128°
2026-05-05 00:01 33.07700 -83.97440 24719 ft 454 kts 137°
2026-05-05 00:01 33.05346 -83.94946 25046 ft 453 kts 146°
2026-05-05 00:01 33.02777 -83.92776 25377 ft 453 kts 148°
2026-05-05 00:01 33.00189 -83.90611 25687 ft 456 kts 148°
2026-05-05 00:02 32.97594 -83.88436 26001 ft 458 kts 148°
2026-05-05 00:02 32.94985 -83.86250 26308 ft 460 kts 148°
2026-05-05 00:02 32.92363 -83.84057 26624 ft 462 kts 148°
2026-05-05 00:02 32.89729 -83.81856 26915 ft 464 kts 148°
2026-05-05 00:03 32.87084 -83.79644 27203 ft 466 kts 148°
2026-05-05 00:03 32.84426 -83.77430 27486 ft 467 kts 148°
2026-05-05 00:03 32.81756 -83.75210 27764 ft 469 kts 148°
2026-05-05 00:03 32.79075 -83.72982 28034 ft 471 kts 148°
2026-05-05 00:04 32.76383 -83.70747 28296 ft 473 kts 148°
2026-05-05 00:04 32.73683 -83.68510 28544 ft 475 kts 148°
2026-05-05 00:04 32.70965 -83.66258 28720 ft 478 kts 148°
2026-05-05 00:04 32.68236 -83.63988 28922 ft 480 kts 148°
2026-05-05 00:05 32.65522 -83.61661 29130 ft 483 kts 147°
2026-05-05 00:05 32.62822 -83.59279 29339 ft 485 kts 146°
2026-05-05 00:05 32.60167 -83.56898 29605 ft 485 kts 146°
2026-05-05 00:05 32.57449 -83.54452 29919 ft 484 kts 146°
2026-05-05 00:06 32.54767 -83.52047 30227 ft 483 kts 146°
2026-05-05 00:06 32.52085 -83.49659 30514 ft 481 kts 147°
2026-05-05 00:06 32.49405 -83.47288 30764 ft 481 kts 147°
2026-05-05 00:06 32.46720 -83.44924 31010 ft 481 kts 147°
2026-05-05 00:07 32.44028 -83.42564 31202 ft 482 kts 147°
2026-05-05 00:07 32.41357 -83.40231 31332 ft 485 kts 147°
2026-05-05 00:07 32.38636 -83.37854 31510 ft 487 kts 147°
2026-05-05 00:07 32.35910 -83.35467 31721 ft 488 kts 147°
2026-05-05 00:08 32.33182 -83.33073 31968 ft 489 kts 147°
2026-05-05 00:08 32.30450 -83.30676 32196 ft 489 kts 147°
2026-05-05 00:08 32.27714 -83.28277 32433 ft 490 kts 148°
2026-05-05 00:08 32.24971 -83.25880 32648 ft 491 kts 148°
2026-05-05 00:09 32.22224 -83.23483 32874 ft 492 kts 148°
2026-05-05 00:09 32.19469 -83.21080 33086 ft 492 kts 148°
2026-05-05 00:09 32.16714 -83.18677 33306 ft 493 kts 148°
2026-05-05 00:09 32.13948 -83.16267 33430 ft 496 kts 148°
2026-05-05 00:10 32.11170 -83.13844 33616 ft 497 kts 148°
2026-05-05 00:10 32.08393 -83.11420 33873 ft 496 kts 148°
2026-05-05 00:10 32.05615 -83.09001 34096 ft 497 kts 149°
2026-05-05 00:10 32.02832 -83.06583 34274 ft 497 kts 149°
2026-05-05 00:11 32.00050 -83.04170 34471 ft 497 kts 149°
2026-05-05 00:11 31.97261 -83.01754 34666 ft 498 kts 149°
2026-05-05 00:11 31.94472 -82.99334 34852 ft 498 kts 149°
2026-05-05 00:11 31.91680 -82.96912 35010 ft 499 kts 149°
2026-05-05 00:12 31.88879 -82.94482 35058 ft 501 kts 149°
2026-05-05 00:12 31.83242 -82.89605 35058 ft 506 kts 149°
2026-05-05 00:13 31.77563 -82.84685 35056 ft 508 kts 148°
2026-05-05 00:13 31.72007 -82.79517 35056 ft 510 kts 146°
2026-05-05 00:14 31.66562 -82.74187 35053 ft 508 kts 146°
2026-05-05 00:14 31.61115 -82.68921 35062 ft 507 kts 146°
2026-05-05 00:15 31.55622 -82.63731 35035 ft 507 kts 147°
2026-05-05 00:15 31.50109 -82.58548 35045 ft 508 kts 147°
2026-05-05 00:16 31.44594 -82.53356 35053 ft 509 kts 147°
2026-05-05 00:16 31.39073 -82.48155 35068 ft 510 kts 147°
2026-05-05 00:17 31.33549 -82.42951 35076 ft 510 kts 147°
2026-05-05 00:17 31.28060 -82.37789 35034 ft 509 kts 147°
2026-05-05 00:18 31.22537 -82.32615 35069 ft 508 kts 147°
2026-05-05 00:18 31.17017 -82.27451 35086 ft 508 kts 147°
2026-05-05 00:19 31.11503 -82.22293 35097 ft 508 kts 148°
2026-05-05 00:19 31.05988 -82.17145 35116 ft 507 kts 147°
2026-05-05 00:20 31.00479 -82.12006 35124 ft 507 kts 148°
2026-05-05 00:20 30.94963 -82.06869 35069 ft 508 kts 147°
2026-05-05 00:21 30.89436 -82.01740 35101 ft 508 kts 147°
2026-05-05 00:21 30.83904 -81.96613 35109 ft 508 kts 147°
2026-05-05 00:22 30.78370 -81.91487 35101 ft 509 kts 147°
2026-05-05 00:22 30.72834 -81.86362 35101 ft 509 kts 147°
2026-05-05 00:23 30.67309 -81.81249 35369 ft 506 kts 147°
2026-05-05 00:23 30.64557 -81.78705 35592 ft 505 kts 147°
2026-05-05 00:23 30.61805 -81.76183 35834 ft 503 kts 148°
2026-05-05 00:23 30.59012 -81.73763 36032 ft 500 kts 150°
2026-05-05 00:24 30.56161 -81.71437 36090 ft 501 kts 152°
2026-05-05 00:24 30.50372 -81.66924 36092 ft 501 kts 153°
2026-05-05 00:25 30.44605 -81.62412 36090 ft 498 kts 152°
2026-05-05 00:25 30.38912 -81.57834 36090 ft 498 kts 152°
2026-05-05 00:26 30.33274 -81.53270 36101 ft 498 kts 152°
2026-05-05 00:26 30.27590 -81.48694 36102 ft 498 kts 152°
2026-05-05 00:27 30.21897 -81.44140 36099 ft 498 kts 152°
2026-05-05 00:27 30.16200 -81.39593 36104 ft 498 kts 152°
2026-05-05 00:28 30.10502 -81.35048 36050 ft 498 kts 152°
2026-05-05 00:28 30.04802 -81.30507 36106 ft 498 kts 152°
2026-05-05 00:29 29.99106 -81.25967 36124 ft 497 kts 152°
2026-05-05 00:29 29.93430 -81.21445 36133 ft 495 kts 152°
2026-05-05 00:30 29.87770 -81.16952 36128 ft 493 kts 153°
2026-05-05 00:30 29.81749 -81.13551 36121 ft 473 kts 171°
2026-05-05 00:31 29.75413 -81.12276 36086 ft 454 kts 187°
2026-05-05 00:31 29.69128 -81.12302 36086 ft 451 kts 188°
2026-05-05 00:32 29.62844 -81.12345 36085 ft 452 kts 188°
2026-05-05 00:32 29.56556 -81.12381 36085 ft 451 kts 189°
2026-05-05 00:33 29.50287 -81.12562 36066 ft 451 kts 190°
2026-05-05 00:33 29.44013 -81.12850 36076 ft 451 kts 190°
2026-05-05 00:34 29.37780 -81.13130 36071 ft 452 kts 190°
2026-05-05 00:34 29.31480 -81.13265 36075 ft 458 kts 184°
2026-05-05 00:35 29.25148 -81.11723 36079 ft 474 kts 169°
2026-05-05 00:35 29.18888 -81.09343 36051 ft 474 kts 169°
2026-05-05 00:36 29.12611 -81.06990 36060 ft 475 kts 169°
2026-05-05 00:36 29.06327 -81.04660 36069 ft 475 kts 169°
2026-05-05 00:37 29.00045 -81.02319 36078 ft 475 kts 169°
2026-05-05 00:37 28.93753 -80.99964 36034 ft 476 kts 168°
2026-05-05 00:38 28.87499 -80.97641 36049 ft 476 kts 169°
2026-05-05 00:38 28.81191 -80.95300 36058 ft 477 kts 169°
2026-05-05 00:39 28.74888 -80.92912 36061 ft 479 kts 167°
2026-05-05 00:39 28.68679 -80.90074 36083 ft 482 kts 163°
2026-05-05 00:40 28.62553 -80.86975 36078 ft 481 kts 162°
2026-05-05 00:40 28.56423 -80.83934 36095 ft 480 kts 163°
2026-05-05 00:41 28.50266 -80.81012 36102 ft 479 kts 164°
2026-05-05 00:41 28.44100 -80.78123 36103 ft 479 kts 164°
2026-05-05 00:42 28.37942 -80.75215 36096 ft 479 kts 164°
2026-05-05 00:42 28.31789 -80.72296 36052 ft 479 kts 164°
2026-05-05 00:43 28.25671 -80.69397 36047 ft 480 kts 164°
2026-05-05 00:43 28.19452 -80.66746 36055 ft 472 kts 172°
2026-05-05 00:44 28.13112 -80.64862 36067 ft 471 kts 172°
2026-05-05 00:44 28.06788 -80.62958 36069 ft 470 kts 172°
2026-05-05 00:45 28.00476 -80.61056 36026 ft 470 kts 172°
2026-05-05 00:45 27.94149 -80.59160 36032 ft 470 kts 172°
2026-05-05 00:46 27.87822 -80.57273 36038 ft 471 kts 172°
2026-05-05 00:46 27.81488 -80.55384 36045 ft 471 kts 172°
2026-05-05 00:47 27.75151 -80.53494 36056 ft 471 kts 172°
2026-05-05 00:47 27.68827 -80.51605 36052 ft 470 kts 173°
2026-05-05 00:48 27.62480 -80.49594 35799 ft 484 kts 169°
2026-05-05 00:48 27.59263 -80.48366 35558 ft 491 kts 167°
2026-05-05 00:48 27.57133 -80.47492 35398 ft 492 kts 166°
2026-05-05 00:48 27.52851 -80.45674 34748 ft 492 kts 166°
2026-05-05 00:49 27.50722 -80.44775 34130 ft 494 kts 166°
2026-05-05 00:49 27.47481 -80.43430 33619 ft 485 kts 166°
2026-05-05 00:49 27.44348 -80.42160 32671 ft 486 kts 167°
2026-05-05 00:49 27.41156 -80.40901 31880 ft 485 kts 167°
2026-05-05 00:50 27.37988 -80.39663 31272 ft 480 kts 167°
2026-05-05 00:50 27.34846 -80.38437 30655 ft 476 kts 167°
2026-05-05 00:50 27.31728 -80.37217 30037 ft 473 kts 167°
2026-05-05 00:50 27.28634 -80.36002 29391 ft 468 kts 167°
2026-05-05 00:51 27.25575 -80.34798 28791 ft 463 kts 167°
2026-05-05 00:51 27.22552 -80.33605 28204 ft 459 kts 167°
2026-05-05 00:51 27.19556 -80.32422 27654 ft 454 kts 167°
2026-05-05 00:51 27.16589 -80.31259 27107 ft 449 kts 167°
2026-05-05 00:52 27.13650 -80.30117 26542 ft 445 kts 167°
2026-05-05 00:52 27.10740 -80.28991 26045 ft 440 kts 167°
2026-05-05 00:52 27.07860 -80.27878 25540 ft 436 kts 167°
2026-05-05 00:52 27.05008 -80.26772 25035 ft 432 kts 167°
2026-05-05 00:53 27.02183 -80.25678 24550 ft 428 kts 167°
2026-05-05 00:53 26.99375 -80.24591 24062 ft 425 kts 167°
2026-05-05 00:53 26.96590 -80.23512 23563 ft 422 kts 167°
2026-05-05 00:53 26.93822 -80.22442 23028 ft 419 kts 167°
2026-05-05 00:54 26.91083 -80.21383 22552 ft 415 kts 167°
2026-05-05 00:54 26.88363 -80.20331 22063 ft 412 kts 167°
2026-05-05 00:54 26.85669 -80.19289 21579 ft 409 kts 167°
2026-05-05 00:54 26.82985 -80.18271 21065 ft 406 kts 167°
2026-05-05 00:55 26.80315 -80.17280 20590 ft 403 kts 168°
2026-05-05 00:55 26.77695 -80.16320 20113 ft 401 kts 168°
2026-05-05 00:55 26.75051 -80.15354 19609 ft 399 kts 168°
2026-05-05 00:55 26.72417 -80.14390 19119 ft 397 kts 167°
2026-05-05 00:56 26.69798 -80.13476 18860 ft 388 kts 169°
2026-05-05 00:56 26.67230 -80.12702 18626 ft 378 kts 172°
2026-05-05 00:56 26.64689 -80.12018 18236 ft 374 kts 173°
2026-05-05 00:56 26.62165 -80.11377 17785 ft 370 kts 173°
2026-05-05 00:57 26.59661 -80.10750 17349 ft 367 kts 173°
2026-05-05 00:57 26.57175 -80.10138 16928 ft 364 kts 173°
2026-05-05 00:57 26.54709 -80.09540 16517 ft 361 kts 173°
2026-05-05 00:57 26.52278 -80.08948 15919 ft 355 kts 172°
2026-05-05 00:58 26.49876 -80.08358 15156 ft 352 kts 172°
2026-05-05 00:58 26.47507 -80.07774 14538 ft 344 kts 171°
2026-05-05 00:58 26.45208 -80.07208 14115 ft 332 kts 172°
2026-05-05 00:58 26.43019 -80.06711 13691 ft 320 kts 173°
2026-05-05 00:59 26.40871 -80.06256 13269 ft 309 kts 173°
2026-05-05 00:59 26.38759 -80.05813 12917 ft 313 kts 172°
2026-05-05 00:59 26.36577 -80.05283 12867 ft 322 kts 170°
2026-05-05 00:59 26.34434 -80.04705 12731 ft 312 kts 169°
2026-05-05 01:00 26.32347 -80.04114 12493 ft 306 kts 169°
2026-05-05 01:00 26.30292 -80.03527 12421 ft 304 kts 169°
2026-05-05 01:00 26.28239 -80.02947 12323 ft 304 kts 169°
2026-05-05 01:00 26.26179 -80.02462 12201 ft 300 kts 178°
2026-05-05 01:01 26.24113 -80.02484 12080 ft 295 kts 191°
2026-05-05 01:01 26.22108 -80.02925 11952 ft 294 kts 195°
2026-05-05 01:01 26.20110 -80.03389 11837 ft 293 kts 196°
2026-05-05 01:01 26.18117 -80.03848 11720 ft 292 kts 195°
2026-05-05 01:02 26.16127 -80.04302 11596 ft 292 kts 195°
2026-05-05 01:02 26.14143 -80.04756 11467 ft 291 kts 195°
2026-05-05 01:02 26.12159 -80.05209 11343 ft 291 kts 195°
2026-05-05 01:02 26.10177 -80.05662 11227 ft 291 kts 195°
2026-05-05 01:03 26.08198 -80.06115 11104 ft 290 kts 195°
2026-05-05 01:03 26.06225 -80.06571 10968 ft 290 kts 196°
2026-05-05 01:03 26.04264 -80.07060 10703 ft 288 kts 197°
2026-05-05 01:03 26.02317 -80.07567 10460 ft 287 kts 197°
2026-05-05 01:04 26.00383 -80.08078 10225 ft 285 kts 197°
2026-05-05 01:04 25.96529 -80.09094 9726 ft 283 kts 196°
2026-05-05 01:04 25.94614 -80.09594 9482 ft 283 kts 197°
2026-05-05 01:05 25.92783 -80.10331 9246 ft 279 kts 211°
2026-05-05 01:05 25.91228 -80.11541 9004 ft 276 kts 225°
2026-05-05 01:05 25.89927 -80.13099 8778 ft 275 kts 230°
2026-05-05 01:05 25.88768 -80.14780 8548 ft 274 kts 241°
2026-05-05 01:06 25.88061 -80.16725 8270 ft 271 kts 256°
2026-05-05 01:06 25.87857 -80.18797 7885 ft 270 kts 268°
2026-05-05 01:06 25.87816 -80.20883 7469 ft 270 kts 268°
2026-05-05 01:06 25.87756 -80.22963 7071 ft 269 kts 267°
2026-05-05 01:07 25.87688 -80.25039 6666 ft 269 kts 267°
2026-05-05 01:07 25.87619 -80.27112 6267 ft 268 kts 268°
2026-05-05 01:07 25.87830 -80.29161 5865 ft 268 kts 284°
2026-05-05 01:07 25.88547 -80.31060 5485 ft 267 kts 298°
2026-05-05 01:08 25.89438 -80.32870 5028 ft 268 kts 298°
2026-05-05 01:08 25.90325 -80.34691 4597 ft 268 kts 298°
2026-05-05 01:08 25.91204 -80.36505 3965 ft 267 kts 298°
2026-05-05 01:08 25.92091 -80.38335 3455 ft 270 kts 299°
2026-05-05 01:09 25.92972 -80.40153 3216 ft 261 kts 299°
2026-05-05 01:09 25.93600 -80.41986 3097 ft 249 kts 283°
2026-05-05 01:09 25.93746 -80.43857 3008 ft 237 kts 268°
2026-05-05 01:09 25.93641 -80.45620 3007 ft 220 kts 258°
2026-05-05 01:10 25.92964 -80.47040 3043 ft 204 kts 220°
2026-05-05 01:10 25.91730 -80.47689 3034 ft 195 kts 182°
2026-05-05 01:10 25.90454 -80.47378 3022 ft 188 kts 149°
2026-05-05 01:10 25.89343 -80.46630 3015 ft 187 kts 143°
2026-05-05 01:11 25.88267 -80.45820 3020 ft 187 kts 143°
2026-05-05 01:11 25.87365 -80.44815 2874 ft 183 kts 118°
2026-05-05 01:11 25.86741 -80.43592 2664 ft 182 kts 117°
2026-05-05 01:11 25.86129 -80.42382 2431 ft 182 kts 117°
2026-05-05 01:12 25.85514 -80.41175 2198 ft 176 kts 117°
2026-05-05 01:12 25.84929 -80.40029 1969 ft 165 kts 116°
2026-05-05 01:12 25.84389 -80.38972 1788 ft 149 kts 116°
2026-05-05 01:12 25.83895 -80.38004 1588 ft 141 kts 116°
2026-05-05 01:13 25.83420 -80.37070 1404 ft 138 kts 116°
2026-05-05 01:13 25.82946 -80.36141 1225 ft 139 kts 117°
2026-05-05 01:13 25.82468 -80.35203 1040 ft 140 kts 117°
2026-05-05 01:13 25.81989 -80.34265 864 ft 140 kts 117°
2026-05-05 01:14 25.81509 -80.33326 683 ft 140 kts 117°
2026-05-05 01:14 25.81027 -80.32382 506 ft 140 kts 117°
2026-05-05 01:14 25.80546 -80.31439 307 ft 141 kts 117°
2026-05-05 01:14 25.80068 -80.30511 122 ft 137 kts 116°
2026-05-05 01:15 25.79610 -80.29610 16 ft 123 kts 119°
2026-05-05 01:15 25.79273 -80.28949 13 ft 80 kts 120°
2026-05-05 01:15 25.79029 -80.28470 15 ft 63 kts 119°
2026-05-05 01:15 25.78900 -80.28181 16 ft 11 kts 99°
2026-05-05 01:16 25.78903 -80.28098 16 ft 11 kts 83°
2026-05-05 01:16 25.78926 -80.28008 16 ft 13 kts 62°
2026-05-05 01:16 25.78941 -80.27901 16 ft 15 kts 77°
2026-05-05 01:16 25.78984 -80.27829 15 ft 12 kts
2026-05-05 01:17 25.79067 -80.27798 15 ft 13 kts 25°
2026-05-05 01:17 25.79123 -80.27778 15 ft 1 kts
2026-05-05 01:17 25.79128 -80.27769 15 ft 3 kts 62°
2026-05-05 01:17 25.79133 -80.27744 15 ft 0 kts 72°
2026-05-05 01:18 25.79132 -80.27737 15 ft 3 kts 87°
2026-05-05 01:18 25.79135 -80.27700 15 ft 5 kts 84°
2026-05-05 01:18 25.79135 -80.27699 15 ft 0 kts 84°
2026-05-05 01:18 25.79135 -80.27704 15 ft 0 kts 84°